EJU478U LFPG-LFMN

Flight info

Callsign EJU478U
Flight time 1h 15m
Altitude 37000
Route LATRA DCT LAMUT DCT UTUVA DCT LERGA DCT LIQID DCT LATAM DCT TUNUR DCT NISAR
Aircraft A21N/M-SDE2E3FGHIRWXY/LB1

Departure

Time 2026-05-07 19:58
Airport Charles de Gaulle International Airport (LFPG)

Arrival

Time 2026-05-07 21:13
Airport Nice-Côte d'Azur Airport (LFMN)
Time Latitude Longitude Altitude Speed Heading
2026-05-07 19:27 49.00555 2.56593 362 ft 0 kts 165°
2026-05-07 19:44 49.00558 2.56592 360 ft 0 kts 165°
2026-05-07 19:45 49.00561 2.56591 360 ft 0 kts 165°
2026-05-07 19:45 49.00565 2.56590 368 ft 0 kts 165°
2026-05-07 19:45 49.00569 2.56588 367 ft 0 kts 165°
2026-05-07 19:45 49.00573 2.56586 367 ft 0 kts 165°
2026-05-07 19:46 49.00576 2.56585 366 ft 8 kts 165°
2026-05-07 19:46 49.00579 2.56584 364 ft 0 kts 165°
2026-05-07 19:46 49.00583 2.56582 363 ft 0 kts 165°
2026-05-07 19:46 49.00586 2.56581 362 ft 0 kts 165°
2026-05-07 19:47 49.00589 2.56580 362 ft 0 kts 165°
2026-05-07 19:47 49.00593 2.56578 361 ft 0 kts 175°
2026-05-07 19:47 49.00596 2.56578 363 ft 0 kts 186°
2026-05-07 19:47 49.00600 2.56578 362 ft 0 kts 197°
2026-05-07 19:48 49.00604 2.56580 362 ft 0 kts 211°
2026-05-07 19:48 49.00608 2.56584 360 ft 0 kts 224°
2026-05-07 19:48 49.00611 2.56588 364 ft 0 kts 253°
2026-05-07 19:48 49.00612 2.56593 363 ft 0 kts 264°
2026-05-07 19:52 49.00611 2.56588 364 ft 2 kts 264°
2026-05-07 19:52 49.00614 2.56552 362 ft 5 kts 285°
2026-05-07 19:52 49.00624 2.56478 365 ft 9 kts 270°
2026-05-07 19:53 49.00623 2.56368 364 ft 12 kts 269°
2026-05-07 19:53 49.00617 2.56235 360 ft 14 kts 264°
2026-05-07 19:53 49.00603 2.56082 364 ft 16 kts 255°
2026-05-07 19:53 49.00571 2.55916 360 ft 17 kts 265°
2026-05-07 19:54 49.00563 2.55723 364 ft 19 kts 265°
2026-05-07 19:54 49.00553 2.55540 363 ft 16 kts 267°
2026-05-07 19:54 49.00525 2.55375 366 ft 17 kts 225°
2026-05-07 19:54 49.00408 2.55346 360 ft 19 kts 161°
2026-05-07 19:55 49.00277 2.55405 361 ft 20 kts 164°
2026-05-07 19:55 49.00137 2.55467 366 ft 22 kts 164°
2026-05-07 19:55 48.99985 2.55531 363 ft 23 kts 161°
2026-05-07 19:55 48.99870 2.55632 360 ft 14 kts 128°
2026-05-07 19:56 48.99817 2.55769 361 ft 14 kts 129°
2026-05-07 19:56 48.99733 2.55809 361 ft 12 kts 174°
2026-05-07 19:56 48.99684 2.55817 364 ft 8 kts 173°
2026-05-07 19:56 48.99623 2.55828 359 ft 10 kts 173°
2026-05-07 19:57 48.99601 2.55890 359 ft 0 kts 83°
2026-05-07 19:57 48.99610 2.56013 359 ft 41 kts 83°
2026-05-07 19:57 48.99652 2.56816 360 ft 109 kts 85°
2026-05-07 19:58 48.99729 2.58237 367 ft 158 kts 85°
2026-05-07 19:58 48.99817 2.59983 786 ft 163 kts 85°
2026-05-07 19:58 48.99900 2.61716 1390 ft 165 kts 86°
2026-05-07 19:58 48.99991 2.63468 2034 ft 167 kts 85°
2026-05-07 19:59 49.00085 2.65241 2750 ft 170 kts 85°
2026-05-07 19:59 49.00185 2.67066 3538 ft 177 kts 85°
2026-05-07 19:59 49.00288 2.69064 4083 ft 200 kts 86°
2026-05-07 19:59 49.00394 2.71310 4583 ft 227 kts 86°
2026-05-07 20:00 49.00514 2.73857 5049 ft 254 kts 86°
2026-05-07 20:00 49.00648 2.76620 5736 ft 268 kts 85°
2026-05-07 20:00 49.00699 2.79453 6568 ft 275 kts 96°
2026-05-07 20:00 49.00404 2.82360 7452 ft 279 kts 101°
2026-05-07 20:01 49.00043 2.85292 8347 ft 285 kts 101°
2026-05-07 20:01 48.99680 2.88291 9243 ft 291 kts 101°
2026-05-07 20:01 48.99319 2.91355 10125 ft 297 kts 101°
2026-05-07 20:01 48.98945 2.94540 10676 ft 316 kts 101°
2026-05-07 20:02 48.98510 2.97917 11136 ft 334 kts 108°
2026-05-07 20:02 48.97598 3.01194 11890 ft 339 kts 122°
2026-05-07 20:02 48.96081 3.03916 12782 ft 336 kts 143°
2026-05-07 20:02 48.94071 3.05625 13818 ft 330 kts 163°
2026-05-07 20:03 48.91820 3.06184 14609 ft 329 kts 183°
2026-05-07 20:03 48.89582 3.05561 15363 ft 329 kts 202°
2026-05-07 20:03 48.87486 3.04146 16132 ft 332 kts 207°
2026-05-07 20:03 48.85398 3.02609 16912 ft 335 kts 207°
2026-05-07 20:04 48.83276 3.01074 17688 ft 339 kts 207°
2026-05-07 20:04 48.81122 2.99551 18440 ft 343 kts 207°
2026-05-07 20:04 48.78940 2.98029 19102 ft 347 kts 207°
2026-05-07 20:04 48.76764 2.96519 19756 ft 350 kts 206°
2026-05-07 20:05 48.74540 2.94985 20414 ft 353 kts 206°
2026-05-07 20:05 48.72294 2.93440 21066 ft 357 kts 206°
2026-05-07 20:05 48.70022 2.91881 21717 ft 360 kts 206°
2026-05-07 20:05 48.67735 2.90312 22344 ft 363 kts 206°
2026-05-07 20:06 48.65421 2.88725 22967 ft 366 kts 206°
2026-05-07 20:06 48.63088 2.87131 23582 ft 370 kts 206°
2026-05-07 20:06 48.60721 2.85573 24099 ft 373 kts 205°
2026-05-07 20:06 48.58327 2.84016 24629 ft 375 kts 205°
2026-05-07 20:07 48.55926 2.82455 25149 ft 378 kts 205°
2026-05-07 20:07 48.53507 2.80879 25668 ft 380 kts 205°
2026-05-07 20:07 48.51068 2.79289 26165 ft 383 kts 205°
2026-05-07 20:07 48.48613 2.77691 26644 ft 385 kts 205°
2026-05-07 20:08 48.46146 2.76086 27116 ft 388 kts 205°
2026-05-07 20:08 48.43699 2.74493 27569 ft 390 kts 205°
2026-05-07 20:08 48.41203 2.72872 28017 ft 392 kts 205°
2026-05-07 20:08 48.38685 2.71238 28461 ft 395 kts 205°
2026-05-07 20:09 48.36161 2.69600 28882 ft 397 kts 205°
2026-05-07 20:09 48.33614 2.67950 29314 ft 399 kts 205°
2026-05-07 20:09 48.31061 2.66297 29735 ft 401 kts 205°
2026-05-07 20:10 48.25901 2.62962 30473 ft 406 kts 205°
2026-05-07 20:10 48.23295 2.61279 30820 ft 408 kts 205°
2026-05-07 20:10 48.20686 2.59597 31155 ft 410 kts 205°
2026-05-07 20:10 48.18063 2.57909 31483 ft 411 kts 206°
2026-05-07 20:11 48.15432 2.56218 31827 ft 412 kts 206°
2026-05-07 20:11 48.12778 2.54567 32158 ft 415 kts 202°
2026-05-07 20:11 48.09978 2.53419 32464 ft 420 kts 193°
2026-05-07 20:11 48.07086 2.53093 32752 ft 427 kts 181°
2026-05-07 20:12 48.04122 2.53670 33039 ft 434 kts 170°
2026-05-07 20:12 48.01217 2.54993 33314 ft 439 kts 165°
2026-05-07 20:12 47.98329 2.56489 33591 ft 440 kts 165°
2026-05-07 20:12 47.95434 2.57974 33946 ft 439 kts 166°
2026-05-07 20:13 47.92539 2.59423 34242 ft 439 kts 166°
2026-05-07 20:13 47.89626 2.60862 34519 ft 439 kts 166°
2026-05-07 20:13 47.86704 2.62297 34783 ft 439 kts 166°
2026-05-07 20:13 47.83804 2.63717 35043 ft 439 kts 166°
2026-05-07 20:14 47.80901 2.65139 35279 ft 439 kts 166°
2026-05-07 20:14 47.78045 2.66537 35514 ft 439 kts 166°
2026-05-07 20:14 47.75149 2.67954 35738 ft 438 kts 166°
2026-05-07 20:14 47.72250 2.69370 35968 ft 438 kts 166°
2026-05-07 20:15 47.69355 2.70781 36193 ft 438 kts 166°
2026-05-07 20:15 47.66455 2.72191 36419 ft 438 kts 166°
2026-05-07 20:15 47.63560 2.73602 36626 ft 438 kts 166°
2026-05-07 20:15 47.60659 2.75008 36823 ft 439 kts 166°
2026-05-07 20:16 47.57755 2.76414 36998 ft 439 kts 166°
2026-05-07 20:16 47.51910 2.79235 37062 ft 442 kts 166°
2026-05-07 20:17 47.46101 2.82041 37031 ft 442 kts 166°
2026-05-07 20:17 47.40245 2.84866 37029 ft 442 kts 166°
2026-05-07 20:18 47.34397 2.87681 37009 ft 442 kts 166°
2026-05-07 20:18 47.28553 2.90477 37013 ft 442 kts 166°
2026-05-07 20:19 47.22749 2.93329 37017 ft 443 kts 165°
2026-05-07 20:19 47.16892 2.96115 37018 ft 442 kts 166°
2026-05-07 20:20 47.11020 2.98797 37018 ft 440 kts 168°
2026-05-07 20:20 47.05127 3.01230 37018 ft 440 kts 168°
2026-05-07 20:21 46.99271 3.03639 37017 ft 440 kts 168°
2026-05-07 20:21 46.93374 3.06064 37021 ft 440 kts 168°
2026-05-07 20:22 46.87484 3.08477 37016 ft 440 kts 168°
2026-05-07 20:22 46.81590 3.10889 37017 ft 440 kts 168°
2026-05-07 20:23 46.75696 3.13289 37017 ft 440 kts 168°
2026-05-07 20:23 46.69844 3.15673 37017 ft 440 kts 168°
2026-05-07 20:24 46.63952 3.18066 37015 ft 440 kts 168°
2026-05-07 20:24 46.58055 3.20455 37013 ft 440 kts 168°
2026-05-07 20:25 46.52159 3.22842 36990 ft 440 kts 168°
2026-05-07 20:25 46.46269 3.25218 37011 ft 440 kts 168°
2026-05-07 20:26 46.40410 3.27576 37013 ft 440 kts 168°
2026-05-07 20:26 46.34518 3.29941 37008 ft 440 kts 168°
2026-05-07 20:27 46.28623 3.32302 37005 ft 439 kts 168°
2026-05-07 20:27 46.22732 3.34651 37008 ft 439 kts 168°
2026-05-07 20:28 46.18107 3.36496 37011 ft 439 kts 168°
2026-05-07 20:28 46.11165 3.39260 37000 ft 439 kts 168°
2026-05-07 20:29 46.05276 3.41605 37017 ft 439 kts 168°
2026-05-07 20:29 46.00388 3.43541 37006 ft 439 kts 168°
2026-05-07 20:30 45.94505 3.45868 37004 ft 439 kts 168°
2026-05-07 20:30 45.87659 3.48569 37007 ft 438 kts 168°
2026-05-07 20:31 45.82755 3.50630 37000 ft 439 kts 167°
2026-05-07 20:31 45.76940 3.53145 37005 ft 439 kts 167°
2026-05-07 20:32 45.71087 3.55667 36994 ft 439 kts 167°
2026-05-07 20:32 45.65239 3.58183 37010 ft 439 kts 167°
2026-05-07 20:33 45.59389 3.60684 37011 ft 439 kts 167°
2026-05-07 20:33 45.53574 3.63170 37017 ft 439 kts 167°
2026-05-07 20:34 45.47727 3.65667 37013 ft 439 kts 167°
2026-05-07 20:34 45.41872 3.68157 37007 ft 439 kts 167°
2026-05-07 20:35 45.36021 3.70642 37005 ft 439 kts 167°
2026-05-07 20:35 45.30195 3.73265 36998 ft 442 kts 161°
2026-05-07 20:36 45.24985 3.77888 37019 ft 452 kts 141°
2026-05-07 20:36 45.20821 3.84646 37016 ft 457 kts 132°
2026-05-07 20:37 45.16858 3.91681 37023 ft 457 kts 132°
2026-05-07 20:37 45.12860 3.98683 37023 ft 457 kts 132°
2026-05-07 20:38 45.08886 4.05619 37020 ft 457 kts 133°
2026-05-07 20:38 45.04873 4.12593 37018 ft 457 kts 133°
2026-05-07 20:39 45.00857 4.19556 37018 ft 456 kts 133°
2026-05-07 20:39 44.96835 4.26497 37012 ft 457 kts 133°
2026-05-07 20:40 44.92823 4.33398 37018 ft 457 kts 133°
2026-05-07 20:40 44.88777 4.40328 37002 ft 458 kts 133°
2026-05-07 20:41 44.84739 4.47259 37002 ft 458 kts 133°
2026-05-07 20:41 44.80724 4.54149 36999 ft 458 kts 133°
2026-05-07 20:42 44.76694 4.61095 36986 ft 459 kts 134°
2026-05-07 20:42 44.72643 4.68021 36987 ft 459 kts 134°
2026-05-07 20:43 44.68568 4.74934 36984 ft 459 kts 134°
2026-05-07 20:43 44.64494 4.81835 36983 ft 459 kts 134°
2026-05-07 20:44 44.60484 4.88646 36599 ft 453 kts 134°
2026-05-07 20:44 44.58475 4.92032 36285 ft 450 kts 135°
2026-05-07 20:44 44.56488 4.95388 35827 ft 446 kts 135°
2026-05-07 20:44 44.54504 4.98727 35324 ft 445 kts 136°
2026-05-07 20:45 44.52527 5.02065 34816 ft 444 kts 136°
2026-05-07 20:45 44.50559 5.05382 34301 ft 442 kts 137°
2026-05-07 20:45 44.48570 5.08647 33767 ft 438 kts 139°
2026-05-07 20:45 44.46579 5.11826 33376 ft 431 kts 139°
2026-05-07 20:46 44.44608 5.14954 33068 ft 427 kts 139°
2026-05-07 20:46 44.42674 5.18015 32789 ft 425 kts 139°
2026-05-07 20:46 44.40722 5.21101 32524 ft 422 kts 139°
2026-05-07 20:46 44.38766 5.24142 32259 ft 417 kts 143°
2026-05-07 20:47 44.36591 5.26755 31995 ft 409 kts 149°
2026-05-07 20:47 44.34347 5.29172 31733 ft 407 kts 150°
2026-05-07 20:47 44.32108 5.31565 31178 ft 406 kts 149°
2026-05-07 20:47 44.29851 5.34000 30221 ft 415 kts 148°
2026-05-07 20:48 44.27560 5.36502 29353 ft 418 kts 148°
2026-05-07 20:48 44.25289 5.38999 28832 ft 413 kts 147°
2026-05-07 20:48 44.23055 5.41454 28377 ft 406 kts 147°
2026-05-07 20:48 44.20859 5.43868 27941 ft 399 kts 147°
2026-05-07 20:49 44.18693 5.46243 27496 ft 394 kts 147°
2026-05-07 20:49 44.16579 5.48555 27036 ft 389 kts 147°
2026-05-07 20:49 44.14468 5.50859 26574 ft 384 kts 147°
2026-05-07 20:49 44.12374 5.53142 26115 ft 380 kts 147°
2026-05-07 20:50 44.10302 5.55400 25667 ft 376 kts 147°
2026-05-07 20:50 44.08254 5.57632 25234 ft 372 kts 147°
2026-05-07 20:50 44.06231 5.59834 24816 ft 367 kts 147°
2026-05-07 20:50 44.04231 5.62013 24372 ft 364 kts 147°
2026-05-07 20:51 44.02240 5.64179 23945 ft 361 kts 147°
2026-05-07 20:51 44.00269 5.66319 23509 ft 358 kts 146°
2026-05-07 20:51 43.98311 5.68443 23028 ft 357 kts 146°
2026-05-07 20:51 43.96359 5.70554 22577 ft 355 kts 146°
2026-05-07 20:52 43.94441 5.72630 22124 ft 354 kts 146°
2026-05-07 20:52 43.92508 5.74724 21674 ft 351 kts 146°
2026-05-07 20:52 43.90586 5.76803 21242 ft 349 kts 145°
2026-05-07 20:52 43.88672 5.78872 20816 ft 348 kts 145°
2026-05-07 20:53 43.86769 5.80928 20397 ft 347 kts 145°
2026-05-07 20:53 43.84869 5.82977 19999 ft 345 kts 145°
2026-05-07 20:53 43.82978 5.85016 19614 ft 344 kts 144°
2026-05-07 20:53 43.81095 5.87045 19233 ft 341 kts 144°
2026-05-07 20:54 43.79222 5.89059 18643 ft 343 kts 144°
2026-05-07 20:54 43.77320 5.91101 17840 ft 351 kts 144°
2026-05-07 20:54 43.75372 5.93194 17029 ft 356 kts 144°
2026-05-07 20:54 43.73415 5.95295 16431 ft 355 kts 143°
2026-05-07 20:55 43.71469 5.97384 15902 ft 353 kts 143°
2026-05-07 20:55 43.69539 5.99455 15395 ft 349 kts 143°
2026-05-07 20:55 43.67655 6.01474 14908 ft 347 kts 143°
2026-05-07 20:55 43.65758 6.03503 14422 ft 344 kts 143°
2026-05-07 20:56 43.63875 6.05515 13958 ft 340 kts 143°
2026-05-07 20:56 43.62007 6.07510 13456 ft 338 kts 143°
2026-05-07 20:56 43.60211 6.09552 13047 ft 333 kts 136°
2026-05-07 20:56 43.58840 6.12062 12775 ft 325 kts 116°
2026-05-07 20:57 43.58056 6.14920 12613 ft 313 kts 110°
2026-05-07 20:57 43.57373 6.17711 12429 ft 302 kts 110°
2026-05-07 20:57 43.56685 6.20412 12214 ft 299 kts 111°
2026-05-07 20:57 43.55971 6.23113 12004 ft 298 kts 111°
2026-05-07 20:58 43.55251 6.25784 11959 ft 297 kts 111°
2026-05-07 20:58 43.54523 6.28453 11883 ft 298 kts 111°
2026-05-07 20:58 43.53800 6.31085 11681 ft 297 kts 111°
2026-05-07 20:58 43.53069 6.33741 11444 ft 295 kts 111°
2026-05-07 20:59 43.52341 6.36377 11200 ft 294 kts 111°
2026-05-07 20:59 43.51616 6.38999 10955 ft 293 kts 111°
2026-05-07 20:59 43.50889 6.41612 10706 ft 291 kts 111°
2026-05-07 20:59 43.50289 6.44261 10466 ft 289 kts 102°
2026-05-07 21:00 43.49980 6.46990 10224 ft 288 kts 98°
2026-05-07 21:00 43.49719 6.49709 9997 ft 285 kts 98°
2026-05-07 21:00 43.49456 6.52397 9796 ft 279 kts 98°
2026-05-07 21:00 43.49198 6.54994 9639 ft 268 kts 98°
2026-05-07 21:01 43.48951 6.57470 9417 ft 262 kts 98°
2026-05-07 21:01 43.48703 6.59936 9082 ft 259 kts 98°
2026-05-07 21:01 43.48454 6.62385 8706 ft 259 kts 98°
2026-05-07 21:01 43.48205 6.64804 8384 ft 252 kts 98°
2026-05-07 21:02 43.47962 6.67166 8101 ft 246 kts 98°
2026-05-07 21:02 43.47723 6.69479 7816 ft 242 kts 98°
2026-05-07 21:02 43.47485 6.71767 7492 ft 241 kts 98°
2026-05-07 21:02 43.47248 6.74048 7165 ft 240 kts 98°
2026-05-07 21:03 43.47011 6.76324 7004 ft 240 kts 98°
2026-05-07 21:03 43.46774 6.78595 6988 ft 240 kts 98°
2026-05-07 21:03 43.46492 6.80860 6947 ft 240 kts 101°
2026-05-07 21:03 43.46156 6.83060 6670 ft 237 kts 102°
2026-05-07 21:04 43.45812 6.85276 6328 ft 237 kts 102°
2026-05-07 21:04 43.45469 6.87496 5981 ft 238 kts 102°
2026-05-07 21:04 43.45128 6.89713 5660 ft 236 kts 102°
2026-05-07 21:04 43.44788 6.91923 5347 ft 236 kts 102°
2026-05-07 21:05 43.44449 6.94124 5042 ft 235 kts 102°
2026-05-07 21:05 43.44111 6.96315 4736 ft 234 kts 102°
2026-05-07 21:05 43.43775 6.98494 4446 ft 232 kts 102°
2026-05-07 21:05 43.43446 7.00621 4259 ft 222 kts 102°
2026-05-07 21:06 43.43133 7.02648 4093 ft 212 kts 102°
2026-05-07 21:06 43.42834 7.04580 3983 ft 205 kts 102°
2026-05-07 21:06 43.42543 7.06460 3979 ft 200 kts 102°
2026-05-07 21:06 43.42254 7.08327 3998 ft 200 kts 102°
2026-05-07 21:07 43.41998 7.10206 4011 ft 200 kts 95°
2026-05-07 21:07 43.42301 7.12036 3919 ft 200 kts 55°
2026-05-07 21:07 43.43331 7.13305 3614 ft 200 kts 36°
2026-05-07 21:07 43.44461 7.14419 3330 ft 199 kts 38°
2026-05-07 21:08 43.45551 7.15596 3159 ft 199 kts 39°
2026-05-07 21:08 43.46776 7.16419 3011 ft 199 kts
2026-05-07 21:08 43.48158 7.16318 3047 ft 201 kts 354°
2026-05-07 21:08 43.49513 7.16103 3038 ft 187 kts 355°
2026-05-07 21:09 43.50745 7.15937 3004 ft 168 kts 355°
2026-05-07 21:09 43.51865 7.15804 2906 ft 162 kts 356°
2026-05-07 21:09 43.52985 7.15697 2676 ft 161 kts 357°
2026-05-07 21:09 43.54037 7.15597 2464 ft 143 kts 357°
2026-05-07 21:10 43.55020 7.15499 2245 ft 141 kts 357°
2026-05-07 21:10 43.55997 7.15396 2025 ft 141 kts 357°
2026-05-07 21:10 43.56973 7.15317 1803 ft 140 kts
2026-05-07 21:10 43.57944 7.15317 1584 ft 139 kts
2026-05-07 21:11 43.58912 7.15327 1379 ft 139 kts
2026-05-07 21:11 43.59875 7.15414 1269 ft 139 kts
2026-05-07 21:11 43.61633 7.16223 911 ft 135 kts 38°
2026-05-07 21:12 43.62341 7.17066 699 ft 135 kts 44°
2026-05-07 21:12 43.63014 7.17972 560 ft 135 kts 42°
2026-05-07 21:12 43.63683 7.18886 367 ft 135 kts 44°
2026-05-07 21:12 43.64349 7.19804 178 ft 135 kts 43°
2026-05-07 21:13 43.65014 7.20718 30 ft 131 kts 43°
2026-05-07 21:13 43.65548 7.21449 29 ft 79 kts 46°
2026-05-07 21:13 43.65747 7.21718 28 ft 4 kts 43°
2026-05-07 21:13 43.65777 7.21761 28 ft 8 kts 47°
2026-05-07 21:14 43.65825 7.21831 27 ft 12 kts 46°
2026-05-07 21:14 43.65894 7.21928 27 ft 16 kts 44°
2026-05-07 21:14 43.65990 7.22032 28 ft 19 kts 31°
2026-05-07 21:14 43.66113 7.22108 28 ft 20 kts 16°
2026-05-07 21:15 43.66237 7.22153 27 ft 17 kts 14°
2026-05-07 21:15 43.66313 7.22180 27 ft 0 kts 15°
2026-05-07 21:16 43.66314 7.22180 27 ft 0 kts 15°
2026-05-07 21:17 43.66328 7.22185 27 ft 4 kts 15°
2026-05-07 21:17 43.66373 7.22199 27 ft 9 kts
2026-05-07 21:17 43.66446 7.22173 28 ft 13 kts 319°
2026-05-07 21:17 43.66513 7.22083 30 ft 13 kts 315°
2026-05-07 21:18 43.66553 7.21979 26 ft 14 kts 249°
2026-05-07 21:18 43.66483 7.21872 26 ft 16 kts 225°
2026-05-07 21:18 43.66398 7.21755 26 ft 18 kts 224°
2026-05-07 21:18 43.66304 7.21626 26 ft 20 kts 225°
2026-05-07 21:19 43.66200 7.21485 30 ft 22 kts 225°
2026-05-07 21:19 43.66090 7.21333 26 ft 24 kts 225°
2026-05-07 21:19 43.65969 7.21165 26 ft 25 kts 225°
2026-05-07 21:19 43.65868 7.21026 26 ft 19 kts 224°
2026-05-07 21:20 43.65808 7.20946 26 ft 6 kts 224°
2026-05-07 21:20 43.65800 7.20884 26 ft 9 kts 301°
2026-05-07 21:20 43.65861 7.20848 26 ft 11 kts 350°
2026-05-07 21:20 43.65945 7.20831 27 ft 13 kts 351°
2026-05-07 21:21 43.66045 7.20808 27 ft 16 kts 350°
2026-05-07 21:21 43.66087 7.20785 27 ft 6 kts 297°
2026-05-07 21:21 43.66083 7.20724 26 ft 7 kts 259°
2026-05-07 21:21 43.66079 7.20695 26 ft 0 kts 261°